TimeCST,TemperatureF,Dew PointF,Humidity,Sea Level PressureIn,VisibilityMPH,Wind Direction,Wind SpeedMPH,Gust SpeedMPH,PrecipitationIn,Events,Conditions,WindDirDegrees,DateUTC
12:58 AM,42.1,22.5,46,30.23,10.0,North,12.7,-,N/A,,Clear,350,2013-02-20 06:58:00
1:58 AM,41.2,22.3,47,30.20,10.0,North,13.8,-,N/A,,Clear,350,2013-02-20 07:58:00
2:58 AM,38.8,23.5,54,30.21,10.0,North,8.1,-,N/A,,Partly Cloudy,10,2013-02-20 08:58:00
3:58 AM,37.6,23.2,56,30.24,10.0,North,3.5,-,N/A,,Scattered Clouds,10,2013-02-20 09:58:00
4:58 AM,32.9,26.1,76,30.25,10.0,SSW,2.3,-,N/A,,Clear,210,2013-02-20 10:58:00
5:58 AM,32.4,26.4,79,30.25,10.0,NW,2.3,-,N/A,,Clear,320,2013-02-20 11:58:00
6:58 AM,36.0,30.4,80,30.24,10.0,NNE,2.3,-,N/A,,Overcast,20,2013-02-20 12:58:00
7:58 AM,38.5,27.1,64,30.24,10.0,NE,3.5,-,N/A,,Partly Cloudy,40,2013-02-20 13:58:00
8:58 AM,45.0,24.1,44,30.26,10.0,North,9.2,-,N/A,,Partly Cloudy,10,2013-02-20 14:58:00
9:58 AM,47.8,21.4,35,30.26,10.0,NNE,8.1,-,N/A,,Clear,20,2013-02-20 15:58:00
10:56 AM,50.0,19.4,30,30.26,10.0,NNW,5.8,-,N/A,,Partly Cloudy,340,2013-02-20 16:56:00
10:58 AM,50.0,20.3,31,30.27,10.0,NNW,6.9,-,N/A,,Partly Cloudy,340,2013-02-20 16:58:00
11:56 AM,53.6,19.4,26,30.23,10.0,NNW,6.9,-,N/A,,Partly Cloudy,340,2013-02-20 17:56:00
11:58 AM,54.3,19.0,25,30.24,10.0,Variable,4.6,-,N/A,,Partly Cloudy,0,2013-02-20 17:58:00
12:56 PM,53.6,15.8,22,30.19,10.0,North,8.1,-,N/A,,Scattered Clouds,360,2013-02-20 18:56:00
1:58 PM,54.5,17.4,23,30.20,10.0,NNW,8.1,-,N/A,,Mostly Cloudy,330,2013-02-20 19:58:00
2:58 PM,52.2,19.2,27,30.19,10.0,North,12.7,-,N/A,,Mostly Cloudy,360,2013-02-20 20:58:00
3:58 PM,52.3,18.5,26,30.17,10.0,North,8.1,-,N/A,,Scattered Clouds,10,2013-02-20 21:58:00
4:58 PM,51.8,18.1,27,30.16,10.0,NE,9.2,-,N/A,,Mostly Cloudy,40,2013-02-20 22:58:00
5:58 PM,48.4,19.9,32,30.17,10.0,North,6.9,-,N/A,,Overcast,350,2013-02-20 23:58:00
6:58 PM,44.8,21.6,40,30.18,10.0,North,4.6,-,N/A,,Clear,360,2013-02-21 00:58:00
7:58 PM,43.0,25.0,49,30.16,10.0,North,3.5,-,N/A,,Clear,360,2013-02-21 01:58:00
8:58 PM,41.0,22.8,48,30.15,10.0,East,3.5,-,N/A,,Clear,100,2013-02-21 02:58:00
9:58 PM,39.2,31.1,73,30.18,10.0,NNW,4.6,-,N/A,,Clear,340,2013-02-21 03:58:00
10:58 PM,39.0,25.0,57,30.15,10.0,North,5.8,-,N/A,,Clear,10,2013-02-21 04:58:00
11:58 PM,38.8,24.1,55,30.14,10.0,NNE,6.9,-,N/A,,Clear,20,2013-02-21 05:58:00